Regional Weather Roundup
Issued by NWS

Home | Current Version | Previous Version | Graphics & Text | Print | Product List | Glossary On
Versions: 1 2 3 4 5 6 7 8 9 10 11 12 13 14 15 16 17 18 19 20 21 22 23 24 25 26 27 28 29 30 31 32 33 34 35 36 37 38 39 40 41 42 43 44 45 46 47 48 49 50
000
ASUS44 KMEG 022210
RWRTN
TENNESSEE HOURLY STATE WEATHER ROUNDUP
NATIONAL WEATHER SERVICE MEMPHIS TN
500 PM CDT WED SEP 02 2015

TNZ002-004-019-021-049-052-054-088>092-022300-
WEST TENNESSEE

CITY           SKY/WX    TMP DP  RH WIND       PRES   REMARKS
MEMPHIS INTL   TSTM      76  70  82 W14       30.02F
NWS MEMPHIS      N/A    N/A N/A N/A MISG        N/A
JACKSON        MOSUNNY   88  70  55 S7        30.01F HX  93
DYERSBURG      SUNNY     90  70  51 CALM      30.01F HX  95
UNION CITY     SUNNY     90  70  51 NE7       29.99F HX  95
PARIS          SUNNY     88  66  48 E5        30.02F HX  90
LEXINGTON      PTSUNNY   75  66  73 NE9       30.02F
$$

TNZ008-025-027-028-033-062-065-066-022300-
NORTH MIDDLE TENNESSEE

CITY           SKY/WX    TMP DP  RH WIND       PRES   REMARKS
NASHVILLE      PTSUNNY   89  63  41 E8        30.02F HX  90
CLARKSVILLE    MOSUNNY   91  66  43 N7        30.01F HX  93
SMYRNA         PTSUNNY   92  68  45 NE5       30.02F HX  96
COOKEVILLE     MOSUNNY   88  72  58 CALM      30.04F HX  94
CROSSVILLE     PTSUNNY   83  65  54 N7        30.10F
$$

TNZ061-075-076-078-094-096-097-022300-
SOUTH MIDDLE TENNESSEE

CITY           SKY/WX    TMP DP  RH WIND       PRES   REMARKS
FAYETTEVILLE   SUNNY     84  68  58 CALM      30.05S
TULLAHOMA      SUNNY     82  70  65 NW3       30.06F
WINCHESTER     SUNNY     84  70  61 CALM      30.04F
MCMINNVILLE    SUNNY     88  73  62 CALM      30.05F HX  96
COLUMBIA       SUNNY     90  70  51 S5        30.01F HX  95
SHELBYVILLE    SUNNY     88  72  58 SW3       30.04F HX  94
$$

TNZ017-018-042-046-047-022300-
NORTHEAST TENNESSEE

CITY           SKY/WX    TMP DP  RH WIND       PRES   REMARKS
TRI CITIES     PTSUNNY   88  63  43 NW6       30.04F
ELIZABETHTON   CLEAR     84  64  51 N6        30.05S
$$

TNZ012-013-036-069-073-074-022300-
CENTRAL EAST TENNESSEE

CITY           SKY/WX    TMP DP  RH WIND       PRES   REMARKS
KNOXVILLE      PTSUNNY   90  65  43 W7        30.01  HX  92
OAK RIDGE      CLOUDY    85  70  60 CALM      30.04F
GATLINBURG       N/A     90  63  40 VRB5      30.01F HX  90
MORRISTOWN     CLEAR     86  66  51 N3        30.05F
$$

TNZ083-085-099-022300-
SOUTHEAST TENNESSEE

CITY           SKY/WX    TMP DP  RH WIND       PRES   REMARKS
CHATTANOOGA    CLOUDY    87  67  51 NE6       30.02F HX  90
$$

SKY/WX REPORTED AS FAIR MEANS FEW OR NO CLOUDS BELOW
12 THOUSAND FEET.



USA.gov is the U.S. government's official web portal to all federal, state and local government web resources and services.